GFSFLT2_sfc_rhum_219.txt.gz
RH
95 94 94 97 97 97 97 97 96 96 95 95 94 93 92 91 91 91 91 90 90 88 87 86 82 81 82 83 89 91 90 88
97 97 97 98 97 96 96 96 96 96 95 95 95 94 92 91 91 92 92 91 91 90 87 84 81 80 82 84 88 89 86 90
94 96 97 98 97 93 96 95 96 95 95 96 100 98 96 93 95 94 93 92 91 90 88 85 81 79 82 84 88 87 91 94
84 91 95 95 80 98 98 94 98 98 98 99 98 95 96 88 90 95 93 92 92 91 88 85 81 82 88 88 92 84 91 95
76 81 91 93 85 98 99 99 99 98 95 98 96 88 94 93 99 97 99 95 98 96 94 89 82 83 78 87 84 84 94 93
70 74 81 86 90 88 90 90 92 94 92 95 95 98 96 98 93 98 99 98 98 98 97 88 84 78 74 77 76 84 91 95
66 72 76 78 86 82 81 82 83 83 85 87 86 92 96 97 97 95 95 97 96 96 93 84 83 79 68 60 67 75 84 90
69 72 72 74 85 77 71 71 78 82 80 84 88 96 97 97 97 94 90 81 84 89 81 82 83 68 60 59 63 66 80 88
69 74 73 73 81 79 77 68 69 74 76 86 88 94 95 95 96 97 92 75 75 77 81 77 71 62 62 63 67 69 76 85
74 62 72 78 84 92 93 92 86 86 96 95 93 92 93 95 96 96 93 80 72 67 71 69 68 67 67 74 72 75 72 86
87 81 88 93 94 94 95 91 95 93 92 94 92 93 94 95 97 96 93 86 79 69 67 65 70 64 68 76 79 77 72 82
92 94 95 95 97 96 97 97 98 95 96 95 89 90 90 95 96 95 95 90 86 77 69 69 61 58 45 64 82 78 76 91
93 94 97 98 98 99 98 97 98 98 97 94 94 95 94 95 97 96 96 96 91 84 72 65 70 66 64 67 79 80 77 85
86 93 95 96 97 97 91 93 94 93 96 97 96 96 96 97 97 98 97 98 96 95 85 78 72 74 58 70 75 75 80 82
46 48 49 63 94 94 96 94 95 95 96 97 97 96 96 98 97 98 98 99 99 98 98 95 88 82 66 67 78 79 85 79
45 45 45 49 54 71 86 86 93 81 84 94 94 95 95 96 97 98 98 99 99 99 98 98 95 92 90 69 69 66 75 78
49 49 48 52 54 58 67 69 71 70 74 68 68 86 94 94 95 96 99 99 98 98 99 99 97 95 91 79 83 84 83 74
45 46 47 50 52 54 59 62 62 65 64 65 69 77 86 90 90 93 96 98 98 98 99 99 98 96 92 87 83 80 76 80
44 39 42 48 49 49 51 55 57 61 66 71 73 77 79 79 85 92 94 94 95 96 96 97 99 99 98 95 90 91 86 80
40 37 36 40 44 48 52 53 58 59 59 66 72 77 79 83 91 91 91 91 93 95 97 98 98 98 96 93 96 96 91 89

GFSFLT2_sfc_rhum_222.txt.gz
RH
98 98 98 99 99 98 98 97 97 97 96 95 95 94 93 92 92 92 92 90 90 87 86 83 82 80 80 85 91 88 92 94
99 99 99 99 99 99 99 98 98 97 96 96 96 94 94 93 93 92 93 91 90 88 86 84 83 81 81 85 87 88 92 94
99 99 99 99 99 98 98 98 98 97 97 97 98 98 96 95 95 94 94 92 92 90 88 86 84 80 81 84 88 92 96 98
98 98 99 98 90 99 99 97 99 99 98 99 99 98 98 94 95 95 95 93 92 91 90 87 85 87 88 87 94 92 97 98
96 97 98 97 94 99 100 100 99 99 98 99 98 96 98 98 98 99 99 95 98 97 96 96 92 89 84 89 90 90 98 98
90 92 96 97 98 99 99 99 99 99 98 98 99 99 98 98 99 100 99 99 99 99 99 96 94 86 82 80 86 92 98 99
83 86 92 93 97 96 98 98 97 96 98 97 98 98 98 98 99 99 99 100 99 99 98 97 94 89 83 79 73 84 93 97
80 82 84 88 90 90 90 91 91 97 96 93 95 97 98 98 98 98 99 98 99 98 98 97 94 89 82 69 64 83 94 96
78 79 81 86 88 85 82 82 85 90 90 95 94 95 96 97 98 98 98 96 96 97 97 95 93 79 72 68 67 72 89 94
80 77 80 85 86 85 88 92 87 82 84 89 92 92 93 97 97 98 97 97 84 86 86 82 88 80 71 70 71 76 83 94
81 81 82 91 95 96 97 96 97 95 96 97 94 91 92 95 97 97 95 97 88 79 78 72 70 68 68 70 79 81 82 84
87 91 96 96 98 98 98 98 98 96 98 96 95 93 94 96 97 96 96 97 92 84 74 70 64 58 47 54 70 83 86 97
95 95 96 96 98 98 98 99 98 98 97 94 94 94 94 96 97 96 97 97 96 90 80 71 73 68 68 65 69 79 87 96
97 97 96 92 93 98 97 97 96 94 97 97 96 96 96 97 97 98 97 98 98 97 88 84 76 77 70 77 72 69 81 87
73 66 73 94 96 97 98 96 93 96 97 97 95 96 96 97 97 98 99 99 99 98 99 98 97 91 81 74 87 81 77 78
48 55 68 89 94 95 92 96 92 79 88 96 96 95 95 96 97 97 98 98 99 99 99 99 98 99 94 83 74 75 84 81
50 51 53 55 64 66 70 71 73 76 73 64 66 76 91 96 96 96 98 98 98 98 98 99 99 98 98 92 87 87 86 85
53 49 53 54 52 62 63 66 68 68 70 74 81 84 88 82 89 95 97 98 99 99 98 99 96 98 99 97 95 93 90 87
50 50 54 52 51 58 60 62 62 66 72 78 79 81 83 91 93 95 97 95 95 96 97 98 98 99 98 98 98 97 95 94
45 47 48 47 52 56 58 57 63 63 65 72 75 82 91 93 95 94 94 94 95 95 97 97 98 98 97 98 98 97 94 94

GFSFLT2_sfc_rhum_225.txt.gz
RH
93 92 96 97 99 98 98 97 97 97 96 96 95 93 93 92 92 92 92 91 89 86 84 83 81 77 81 87 88 89 92 97
94 90 90 95 99 99 98 98 98 97 97 97 96 95 94 94 93 93 93 91 89 87 86 85 83 80 81 84 86 88 93 96
99 95 91 93 94 98 99 98 98 98 97 97 99 98 96 95 96 94 94 92 91 89 87 87 85 83 83 84 85 97 96 98
98 97 96 96 90 94 99 99 99 99 99 98 99 98 98 96 96 96 94 94 92 91 89 87 88 93 91 87 95 93 97 98
98 99 99 99 95 94 97 98 99 100 99 99 99 98 98 99 99 99 99 96 99 96 96 97 94 94 91 90 92 91 98 98
97 98 98 98 98 96 95 97 100 100 99 99 99 100 99 99 99 99 100 99 99 99 99 97 96 93 89 86 88 92 98 99
98 97 97 98 98 99 99 99 99 99 99 99 99 99 98 98 99 99 97 96 100 99 99 98 97 95 93 87 83 88 95 99
94 96 96 97 97 97 98 98 98 98 98 97 97 98 98 98 99 99 99 99 99 99 99 98 98 95 91 86 77 81 94 97
90 93 95 96 97 96 96 95 95 98 98 97 96 97 97 97 98 99 98 99 98 99 98 98 98 92 88 80 74 74 96 96
88 85 92 95 96 94 90 93 96 96 98 98 96 96 96 97 98 98 98 98 98 98 98 98 93 94 91 81 73 73 82 95
88 88 92 92 93 97 96 95 97 97 97 98 96 96 95 96 98 97 97 97 98 95 96 96 94 85 79 75 69 71 76 88
85 89 92 93 98 98 99 99 98 98 97 95 94 94 95 96 98 97 96 96 96 93 88 86 76 79 63 61 64 69 73 91
89 89 94 96 98 99 99 99 99 98 98 96 96 97 96 97 97 97 96 97 96 95 88 79 77 70 67 67 68 71 79 86
94 93 96 93 95 98 97 98 98 96 98 97 96 96 97 98 98 98 98 99 98 99 96 96 91 90 84 80 80 75 79 83
94 95 95 94 92 92 96 95 96 97 98 98 97 96 97 97 98 98 98 99 99 99 99 99 99 97 92 92 92 86 80 86
95 95 94 94 91 89 91 90 94 86 94 96 94 95 96 95 96 98 98 99 99 99 99 99 99 99 97 91 94 91 94 92
80 86 92 93 91 84 94 76 78 77 75 71 75 88 95 96 98 98 99 99 99 99 99 99 98 98 98 97 94 92 92 92
68 74 76 77 72 80 70 68 70 67 71 81 87 85 89 95 96 97 97 97 97 98 98 97 99 96 94 99 99 98 96 96
59 61 60 62 63 66 66 65 64 68 78 84 83 83 92 95 94 96 97 96 96 96 96 97 99 97 99 98 97 98 96 96
51 52 57 59 60 58 65 64 70 70 77 76 81 87 95 95 96 96 95 94 95 96 97 98 96 98 96 97 98 98 98 97

GFSFLT2_sfc_rhum_228.txt.gz
RH
91 96 97 97 97 96 96 96 96 95 94 94 94 93 92 92 92 92 93 91 87 84 83 81 79 80 83 85 86 86 89 93
90 86 92 91 98 97 97 97 96 96 96 96 96 94 93 93 93 93 92 91 87 85 85 84 80 80 82 84 85 90 90 93
86 89 86 87 90 97 98 97 97 97 97 97 99 98 96 95 96 94 93 91 89 88 86 86 85 84 84 83 85 92 95 96
94 88 86 92 88 94 96 96 98 99 99 98 99 98 98 97 96 95 94 93 92 91 89 88 88 92 89 86 89 90 96 95
90 88 92 90 86 94 96 95 96 98 99 94 99 99 99 99 99 99 99 96 99 97 96 97 94 94 91 88 89 88 96 96
94 92 93 91 88 89 92 94 94 95 98 96 99 100 99 99 99 98 99 99 99 99 99 98 96 94 91 88 85 88 94 96
92 97 98 95 94 90 90 91 94 92 98 99 99 99 99 99 99 98 94 90 95 99 99 98 97 95 93 92 86 85 88 95
92 96 97 98 98 96 94 95 97 99 100 99 98 98 98 98 98 98 99 93 94 99 99 99 98 96 93 89 87 81 84 94
97 96 97 98 98 98 99 99 99 99 99 98 98 98 97 96 98 99 98 99 99 99 98 98 98 94 95 88 83 77 80 91
96 93 97 97 96 96 98 98 99 99 99 98 97 97 96 97 98 98 98 98 99 99 99 99 99 94 91 91 84 78 75 85
96 95 97 96 96 97 98 97 98 98 98 98 96 96 96 97 97 97 98 97 97 96 97 97 98 97 90 86 83 80 74 73
90 93 95 96 98 99 99 98 98 98 98 98 96 96 94 96 97 96 97 98 98 98 96 90 89 87 75 75 76 72 72 82
91 94 95 96 98 98 99 97 99 99 98 96 97 96 94 95 96 97 97 97 97 97 95 90 84 78 72 72 72 68 72 66
90 92 96 94 95 95 97 98 99 98 99 98 97 97 97 98 98 98 98 99 98 98 97 96 92 88 86 81 85 78 78 76
90 91 95 93 94 98 99 97 99 99 99 99 98 98 98 98 98 98 99 99 99 99 98 98 99 97 92 93 95 90 88 80
93 94 94 93 96 94 96 94 98 97 97 97 96 96 97 96 97 98 99 99 99 99 99 99 99 99 97 92 94 94 98 96
91 91 92 97 94 93 96 92 83 82 93 80 89 97 98 98 98 98 99 98 98 98 98 98 97 96 92 95 92 95 98 98
98 95 94 96 93 93 84 76 79 83 86 92 90 94 98 98 97 98 98 98 98 98 98 98 98 96 95 96 97 97 95 94
93 97 97 91 87 80 75 70 69 74 81 87 87 91 97 97 96 96 97 96 96 96 97 98 98 96 97 99 97 96 96 92
82 87 76 72 76 70 69 69 71 77 83 83 86 93 97 96 96 96 95 94 95 96 98 98 97 98 97 97 96 98 98 95

GFSFLT2_sfc_rhum_231.txt.gz
RH
85 82 86 97 96 95 94 94 93 94 94 94 93 92 93 93 93 94 91 88 85 84 83 81 80 81 81 82 84 85 58 60
82 82 81 83 85 96 96 95 94 94 94 94 94 93 93 93 93 93 91 88 85 84 83 81 79 80 82 82 85 88 54 59
79 77 80 84 83 84 96 96 95 96 92 95 92 66 70 77 80 94 92 90 87 85 84 83 82 82 82 83 83 49 56 59
78 80 80 81 76 87 82 78 74 75 74 79 70 73 69 65 78 94 93 92 90 89 87 85 80 56 53 70 47 56 60 61
81 81 82 82 81 86 83 81 84 83 79 80 77 74 75 69 68 68 71 86 67 74 72 63 68 62 58 59 56 56 55 59
82 79 86 84 76 79 81 81 89 87 88 88 90 79 80 74 67 68 71 65 70 70 65 71 72 70 68 64 60 56 50 54
83 82 86 86 84 81 83 85 85 84 91 91 89 78 82 72 74 68 66 66 76 74 70 67 70 69 67 64 62 58 58 52
78 85 88 87 84 85 84 84 82 85 91 88 90 84 84 80 76 68 67 65 77 86 69 68 68 69 67 66 60 57 54 56
74 83 88 89 85 83 83 84 85 88 86 88 85 82 82 78 78 68 63 68 81 75 75 73 71 68 70 67 63 58 54 55
74 78 84 83 83 78 76 78 78 75 75 78 84 82 79 81 77 70 63 69 71 71 71 71 70 69 69 80 66 63 57 55
77 81 86 84 81 84 84 82 78 72 75 78 82 81 80 76 72 67 70 70 86 87 88 86 86 82 67 65 74 75 68 58
76 81 87 86 88 84 85 90 87 75 73 73 78 76 76 78 74 76 76 82 87 88 86 84 83 72 64 62 64 68 67 62
77 80 82 88 92 90 86 88 85 85 81 74 76 78 75 77 77 82 89 86 86 91 83 78 76 76 69 66 61 59 62 61
73 75 78 81 83 77 72 79 74 67 75 81 80 79 79 81 82 84 90 91 92 92 90 90 88 81 81 77 84 63 53 52
70 72 74 77 77 73 82 75 86 82 86 88 86 84 85 90 93 95 95 95 95 96 96 92 94 94 85 89 95 69 67 56
66 70 73 74 77 73 80 71 82 83 95 94 93 92 96 96 96 96 96 96 95 97 96 96 96 96 85 74 80 81 88 76
72 73 75 77 79 74 80 72 77 85 88 88 91 93 94 94 91 94 94 93 95 83 83 82 79 78 81 85 80 72 69 80
77 78 79 81 83 80 78 80 79 82 84 84 85 93 92 90 90 89 86 85 84 85 87 84 82 82 80 80 83 84 76 75
85 85 89 92 91 88 81 80 79 80 77 76 84 87 82 84 81 83 81 80 79 80 81 82 83 83 82 80 75 76 78 77
89 89 91 95 93 90 80 77 76 77 78 68 73 72 76 80 78 76 76 76 78 79 80 82 82 85 80 78 74 77 74 76

GFSFLT2_sfc_rhum_234.txt.gz
RH
62 65 77 97 95 95 95 94 94 94 94 94 93 92 93 93 92 92 89 86 84 84 82 82 81 77 75 78 81 79 42 36
61 57 65 71 73 95 94 94 94 94 94 94 93 93 93 93 93 92 89 86 85 84 83 82 80 78 77 78 79 78 38 33
56 57 61 64 65 73 92 94 94 95 91 94 89 52 60 71 70 92 90 86 86 85 84 82 81 80 76 76 81 31 36 34
53 57 60 60 50 67 66 62 59 60 60 68 52 51 49 44 66 92 91 89 88 87 86 84 82 39 43 65 34 36 38 38
54 58 60 60 54 55 53 53 53 55 60 61 53 52 53 47 49 55 57 82 54 66 66 48 48 44 40 42 38 41 32 35
55 53 62 64 52 57 53 49 56 55 54 62 56 54 55 49 43 44 49 46 47 48 44 52 55 54 52 48 46 38 30 32
53 54 62 62 62 55 55 53 75 70 66 79 57 50 55 49 47 44 41 42 46 49 50 49 53 54 52 50 44 43 43 35
55 58 60 61 58 60 60 73 70 72 76 78 79 55 57 50 50 45 43 42 44 51 50 49 50 50 54 53 48 41 41 43
57 66 68 67 63 62 61 70 65 75 77 81 81 62 62 55 47 46 42 44 56 58 58 58 52 50 54 52 51 51 42 44
51 54 69 76 69 58 56 56 65 68 66 65 71 64 60 60 50 49 43 47 50 51 56 60 54 53 58 60 54 50 50 48
50 54 60 67 66 58 59 60 58 52 52 50 63 63 62 55 50 47 50 49 56 58 61 60 55 52 48 49 49 52 52 46
52 53 59 64 60 61 55 53 52 47 50 49 63 58 61 58 46 52 53 50 55 56 59 56 57 55 46 45 48 46 48 50
53 58 62 62 60 61 58 57 54 52 50 54 59 54 58 59 51 57 59 54 54 62 61 65 73 65 59 51 47 48 52 47
50 54 59 60 58 55 52 52 48 49 51 55 57 60 61 60 61 60 63 60 68 74 76 74 75 68 71 65 62 46 42 42
45 50 54 59 58 53 54 50 52 53 54 54 58 63 65 65 68 66 70 72 76 82 86 84 89 84 77 88 82 56 52 36
42 45 50 55 58 55 60 51 54 51 53 57 68 67 72 74 76 82 87 91 93 95 95 92 92 92 83 78 72 63 54 51
43 43 48 53 59 57 56 52 49 49 62 88 92 92 89 88 89 92 94 96 96 95 88 74 75 66 62 63 65 64 64 66
47 44 47 54 60 61 60 63 53 71 82 86 97 95 94 92 84 83 84 76 74 72 72 65 59 56 51 54 54 55 46 47
52 48 50 55 62 63 62 64 63 72 78 91 95 94 90 86 78 78 70 69 68 67 69 70 66 61 63 57 54 53 56 53
55 53 54 57 71 69 71 70 68 65 76 86 87 80 77 76 69 67 68 67 66 64 60 59 66 63 68 63 53 55 53 52